Погода в Васильевке

Россия / Липецкая область     51°58′34″N   38°01′40″E
темп.,
°C
ветер,
м/с
пор.,
м/с
влажн.,
%
обл.,
%
осадки,
мм/ч
давл.,
гПа
погр.,
м
9 марта, вт
вт900:00−9сз239578 0.0 101025
03:00−10ссз239371 0.0 101128
06:00−14ссз349477 0.1 101272
09:00−12ссз369482 0.1 1014230
12:00−10ссз469150 0.0 1016379
15:00−9сз468774 0.0 1018644
18:00−12сз369395 0.0 1019114
21:00−15сз349457 0.0 102158
10 марта, ср
ср1000:00−16сз349518 0.0 102253
03:00−18сз349645 0.0 102450
06:00−19сз34960 0.0 102661
09:00−18сз36930 0.0 1027189
12:00−14ссз34890 0.0 1028294
15:00−12сз238635 0.0 1028503
18:00−13ссв2296100 0.1 102830
21:00−16св359598 0.2 1029101
11 марта, чт
чт1100:00−19всв359391 0.0 103095
03:00−22всв339182 0.0 103235
06:00−23всв33937 0.0 103324
09:00−20всв24924 0.0 1034115
12:00−15в24800 0.0 1034306
15:00−13в23760 0.0 1034418
18:00−16св23850 0.0 103320
21:00−18всв23860 0.0 103420
12 марта, пт
пт1200:00−18вюв23870 0.0 103520
03:00−18юв23890 0.0 103520
06:00−18ююв23850 0.0 103520
09:00−16ююв35860 0.0 1035136
12:00−11ююв46810 0.0 1034414
15:00−9ююв48750 0.0 1033675
18:00−11юв477832 0.0 103299
21:00−11ююв4107866 0.0 1032188
13 марта, сб
сб1300:00−11ююв51377100 0.0 1031316
03:00−10ю61472100 0.0 1030417
06:00−9ю61472100 0.0 1029441
09:00−8ю71471100 0.0 1029558
12:00−6ю81369100 0.0 1028767
15:00−4ю61270100 0.0 1027863
18:00−5ю51375100 0.0 1026466
21:00−5ююз61475100 0.0 1025518